Погода в Джонке

Россия / Хабаровский край     49°40′23″N   136°56′36″E
темп.,
°C
ветер,
м/с
пор.,
м/с
влажн.,
%
обл.,
%
осадки,
мм/ч
давл.,
гПа
погр.,
м
25 января, вт
вт2501:00−28юз1110098 0.0 10269
04:00−28юз11100100 0.1 10269
07:00−29зюз11100100 0.0 10269
10:00−25юз1199100 0.1 102652
13:00−20зюз229695 0.0 1025183
16:00−19зюз229453 0.1 1024115
19:00−25юз1110036 0.0 10249
22:00−26ю1110091 0.0 10249
26 января, ср
ср2601:00−27ююв0010099 0.0 10249
04:00−27св0010098 0.0 10249
07:00−27св1110099 0.0 10249
10:00−24с009998 0.1 102442
13:00−19з219490 0.0 1024182
16:00−18зюз119350 0.1 1023120
19:00−25юз1110055 0.0 10249
22:00−25ююв1110094 0.0 10249
27 января, чт
чт2701:00−26юз0110098 0.0 10259
04:00−26юз00100100 0.1 10259
07:00−26юз11100100 0.1 102516
10:00−23зюз1298100 0.1 102592
13:00−19зюз2393100 0.1 1024270
16:00−18зюз3492100 0.2 1022321
19:00−20юз1210088 0.1 102231
22:00−21ю24100100 0.3 102069
28 января, пт
пт2801:00−19ююз4997100 0.1 1019439
04:00−19юз2498100 0.3 1017211
07:00−19юз2798100 0.4 1015472
10:00−20юз4896100 0.9 1015492
13:00−19зюз3590100 0.4 1013588
16:00−19з2289100 0.5 1013407
19:00−21ююз229896 0.1 101316
22:00−26ююз1110081 0.1 10139
29 января, сб
сб2901:00−28ю11100100 0.0 10139
04:00−29ююз11100100 0.1 10139
07:00−28ююз2210099 0.1 101322
10:00−24юз2499100 0.1 1013118
13:00−20юз5793100 0.1 1012444
16:00−20юз5993100 0.1 1010433
19:00−21ююз61193100 0.0 1010418
22:00−21ююз71292100 0.1 1009483